EHI
0 0 0 0 0 0 0 0 0 1 2 2 1 0 0 1 1 1 1 2 4 5 7 12 18 22 26 31 34 33 29 27 25 24 25 24 19 15 10 7 9 9 6 4
0 0 0 0 0 0 0 0 0 0 2 3 2 1 0 0 0 0 0 1 3 7 10 12 16 20 25 31 34 32 29 27 26 26 27 26 22 17 12 9 10 9 5 4
0 0 0 0 0 0 0 0 0 0 1 2 3 2 0 0 0 0 0 1 3 8 12 12 12 15 21 28 32 32 31 30 28 29 29 28 25 20 15 11 8 5 4 4
0 0 0 0 0 0 0 0 0 0 1 1 2 1 0 0 0 0 1 2 4 7 10 12 11 12 17 22 27 31 34 34 32 30 29 27 25 22 18 13 7 4 3 4
0 0 0 0 0 0 0 0 0 0 0 0 0 0 0 0 0 0 1 2 4 6 8 11 13 14 16 19 22 27 34 36 33 30 27 24 22 21 19 15 11 8 5 4
0 0 0 0 0 0 0 0 0 0 0 0 0 0 0 0 0 0 0 1 4 6 7 10 13 16 18 19 20 23 29 32 30 28 25 21 19 18 17 15 13 11 8 6
0 0 0 0 0 0 0 0 0 0 0 0 0 0 0 0 0 0 0 2 5 6 7 8 12 15 18 20 21 23 26 29 28 25 22 18 16 16 16 13 12 10 8 6
0 0 0 0 0 0 0 0 0 0 0 0 0 0 0 0 0 0 1 3 6 6 6 8 11 14 17 20 22 23 25 27 25 21 19 17 16 14 13 11 11 9 7 5
0 0 0 0 0 0 0 0 0 0 0 0 0 0 0 0 0 0 1 4 6 6 7 9 12 15 17 18 19 20 22 23 20 16 15 14 13 12 10 9 10 10 8 7
0 0 0 0 0 0 0 0 0 0 0 0 0 0 0 0 0 0 1 3 6 7 7 9 12 16 17 17 16 16 16 16 14 11 9 9 9 10 8 8 9 11 10 9
0 0 0 0 0 0 0 0 0 0 0 0 0 0 0 1 1 1 1 3 6 8 7 8 10 14 16 14 13 12 11 10 10 8 7 6 6 6 6 7 8 10 10 11
0 0 0 0 0 0 0 0 0 0 0 0 0 0 1 2 2 2 2 2 4 7 7 6 7 10 12 11 9 8 8 7 7 7 6 6 5 4 4 6 6 6 8 9
0 0 0 0 0 0 0 0 0 0 0 0 0 0 1 2 3 4 3 2 4 6 6 6 6 6 7 8 7 6 6 6 7 6 5 4 4 3 4 4 3 3 4 5
0 0 0 0 0 0 0 0 0 0 0 0 0 0 1 3 4 4 4 5 7 8 7 6 7 6 6 7 6 6 6 6 6 6 5 4 3 3 3 3 2 2 2 3
0 0 0 0 0 0 0 0 0 0 0 1 1 0 1 4 4 4 5 6 9 10 8 8 9 8 8 8 7 6 6 6 6 6 6 5 4 3 3 3 2 2 3 3
0 0 0 0 0 0 0 1 0 0 0 1 1 1 2 4 4 4 6 7 8 8 9 9 9 9 10 9 8 7 7 6 6 6 6 6 4 3 3 3 3 4 5 6
0 0 0 0 0 0 0 0 0 0 0 0 0 1 4 6 4 4 6 7 6 7 8 8 7 8 10 10 9 8 7 7 6 6 6 6 4 3 3 4 5 6 8 9
0 0 0 0 0 0 0 0 0 0 0 0 0 2 6 7 4 4 6 7 7 7 7 7 6 7 9 10 10 9 8 7 6 6 6 6 4 3 3 4 5 7 8 9
0 0 0 0 0 0 0 0 0 0 0 0 0 3 7 7 6 7 8 8 8 8 7 5 4 7 9 10 10 10 9 7 6 6 6 5 4 3 3 4 5 7 8 9
0 0 0 0 0 0 0 0 0 0 1 1 2 4 8 8 8 11 11 9 8 9 7 4 3 6 10 11 10 10 9 8 7 6 5 4 3 3 3 3 4 6 7 8
0 0 0 0 0 0 0 0 0 0 1 2 2 5 8 10 11 11 10 8 7 8 5 3 3 6 10 13 12 11 10 9 7 6 4 4 4 3 3 3 3 4 6 7
0 0 0 0 0 0 0 0 0 0 1 2 2 5 10 13 12 9 8 7 6 5 4 3 4 6 10 13 13 11 9 8 6 4 3 4 5 4 3 3 3 4 6 7
0 0 0 0 0 0 0 1 0 0 1 2 3 6 10 12 10 6 4 5 6 5 5 5 5 6 8 9 10 9 8 6 4 3 3 4 6 5 4 3 3 4 6 6
0 0 0 0 0 0 0 0 0 0 0 1 3 6 8 9 6 3 2 3 5 5 5 6 6 5 6 6 7 7 5 4 3 2 2 4 5 5 4 3 3 3 4 5
0 0 0 0 0 0 0 0 0 1 1 1 1 3 4 6 4 2 1 2 4 5 6 6 6 6 6 6 6 5 4 4 3 3 3 4 4 4 3 3 2 1 2 3
0 0 0 0 0 1 1 1 0 1 1 1 1 1 3 4 2 1 0 1 3 5 6 6 6 6 6 6 6 5 4 4 4 3 3 3 3 3 3 3 2 1 1 1
Wind_Speed
10 11 12 11 12 12 10 11 11 8 5 8 10 11 8 7 8 9 8 8 8 7 7 7 7 8 8 9 10 10 10 9 7 6 6 5 5 5 4 4 4 4 4 4
11 15 14 11 11 12 13 13 12 7 5 7 9 10 7 7 8 8 8 8 8 7 8 8 8 8 9 9 10 10 10 10 9 6 5 4 5 5 4 4 4 4 4 4
16 8 8 11 13 13 14 13 11 9 8 10 11 10 8 7 7 7 7 7 7 7 7 8 8 8 9 10 10 9 10 10 9 8 5 5 4 5 5 5 4 4 4 4
14 10 9 12 13 13 12 10 10 10 11 8 8 8 6 7 7 8 8 7 7 6 7 7 8 9 10 10 10 10 10 10 9 8 7 7 6 5 4 4 4 4 5 4
10 9 11 13 12 12 11 7 10 12 12 12 10 11 5 8 8 8 7 6 6 6 6 7 7 8 9 9 9 10 10 9 9 8 8 7 6 5 4 4 4 4 4 4
12 9 10 11 9 10 9 9 10 12 11 13 9 10 6 5 5 5 6 5 5 5 6 6 6 7 8 8 9 9 10 9 9 8 8 8 7 6 5 5 4 4 4 4
12 12 10 9 10 10 10 10 8 10 10 8 5 8 5 1 2 3 4 5 4 4 5 6 7 7 7 8 8 9 10 9 9 9 8 8 7 7 6 6 5 4 4 4
9 9 10 9 11 8 10 12 10 8 8 6 8 8 3 2 2 3 3 4 4 4 4 5 6 6 7 8 8 8 9 8 8 8 7 7 7 5 5 5 4 5 4 4
7 7 6 8 9 10 11 12 10 11 10 9 6 5 5 4 3 3 4 4 5 5 5 5 6 6 7 7 7 7 7 7 7 7 7 6 6 5 5 5 5 5 4 4
8 8 7 7 9 11 11 9 8 10 9 9 8 8 4 4 4 3 4 4 4 5 5 5 5 6 6 6 7 7 7 7 7 6 6 5 6 6 5 5 5 5 5 4
9 9 8 9 11 11 11 11 10 9 10 9 8 3 1 0 1 2 3 3 4 4 5 5 5 6 6 6 7 6 6 6 6 6 5 5 6 6 6 5 5 5 5 5
7 7 9 11 7 7 10 11 10 10 9 9 8 2 3 1 1 1 1 2 4 4 5 5 5 5 5 5 5 5 5 5 5 5 5 5 5 6 6 5 5 5 5 5
4 6 8 9 10 10 10 10 11 11 9 8 9 3 3 2 1 1 1 2 4 4 5 5 5 4 4 4 5 5 5 5 5 5 5 5 5 5 5 5 5 5 5 4
5 7 10 9 5 5 8 9 10 12 10 9 8 6 2 1 1 1 1 2 4 5 5 5 4 4 4 4 4 4 4 4 4 4 4 4 4 4 5 4 5 4 4 5
5 8 8 7 6 5 7 8 9 10 10 10 7 7 4 2 1 0 1 2 3 4 4 5 5 4 4 4 4 4 3 4 4 4 4 4 3 3 4 4 4 4 4 5
3 6 7 8 8 7 7 8 9 9 9 9 8 6 3 1 1 0 1 2 3 3 4 4 4 4 4 4 4 4 4 4 4 4 4 4 3 3 3 3 4 4 4 4
4 6 7 9 8 8 9 8 8 7 7 8 7 4 0 1 1 0 1 2 2 2 3 3 4 4 4 4 4 4 4 4 4 5 4 4 4 4 4 3 3 3 4 4
6 7 6 7 7 10 4 2 4 5 5 4 4 1 0 1 0 0 0 1 1 1 1 2 3 4 4 4 4 4 4 4 4 4 4 4 4 4 3 3 3 3 3 4
7 7 6 6 8 7 4 2 3 6 4 2 3 2 1 1 2 2 2 1 0 0 1 1 2 3 4 4 4 4 4 4 4 4 4 4 4 4 3 4 3 3 3 4
5 6 7 7 8 7 1 3 4 5 4 1 1 1 1 2 3 2 2 2 2 2 1 1 1 3 3 3 3 4 4 4 3 3 3 3 4 4 4 3 3 3 3 4
5 6 8 8 7 3 3 4 3 5 1 2 1 0 1 1 3 2 1 2 2 2 1 2 2 2 3 3 3 4 3 3 2 2 2 2 2 3 4 3 3 3 4 4
4 4 6 6 6 2 4 1 1 3 4 2 2 1 1 2 2 2 2 2 1 1 1 2 3 2 2 2 3 3 2 2 1 2 2 1 1 2 2 2 3 4 4 4
2 4 3 3 1 3 3 2 3 3 3 3 2 2 1 1 1 1 1 1 1 1 1 1 2 3 2 2 2 3 2 2 2 2 1 1 1 1 1 2 3 3 3 3
0 3 2 2 1 2 2 2 3 3 3 3 2 1 0 1 1 1 1 2 2 2 2 2 2 2 2 2 2 2 2 2 2 2 1 1 1 1 1 2 2 2 2 2
3 2 2 3 2 2 1 4 5 5 4 2 2 1 1 1 1 2 2 2 2 2 2 2 2 2 2 2 2 1 2 2 2 2 2 2 1 1 0 1 2 2 1 2
3 3 4 3 3 4 4 5 5 5 4 2 1 1 1 1 2 2 2 2 2 2 2 2 2 2 2 2 2 1 2 2 2 2 2 2 1 1 1 1 1 1 1 1
Wind_Direction
195 221 226 228 235 259 271 267 266 265 257 255 257 261 251 232 226 221 214 209 205 202 189 180 181 182 180 177 175 177 179 173 174 174 178 176 172 168 166 170 168 176 181 180
204 226 234 240 243 248 253 258 262 257 250 262 266 264 250 232 227 218 212 207 203 196 185 181 184 183 180 178 176 176 179 175 179 175 176 178 172 172 164 169 171 184 188 195
224 231 220 230 235 240 245 252 261 270 272 249 258 248 223 203 205 204 209 209 204 197 195 188 185 186 182 179 178 175 175 175 180 174 172 164 169 173 168 174 175 184 192 196
237 237 226 230 236 238 246 247 257 263 263 256 245 260 220 200 203 204 204 203 202 197 198 194 187 185 184 178 175 171 171 173 173 175 179 179 184 185 178 182 174 186 194 198
229 226 227 236 239 238 249 258 255 257 258 263 243 255 227 195 211 206 202 204 200 197 191 186 186 184 180 175 170 169 167 170 174 183 183 190 193 188 178 180 171 189 188 201
249 241 241 244 242 241 246 247 245 243 244 245 242 254 243 201 216 207 194 197 198 189 178 172 167 168 170 172 168 166 166 168 174 183 188 194 190 188 183 186 183 194 195 199
232 228 224 233 232 216 225 238 234 225 224 237 211 244 244 211 215 229 205 190 187 181 172 162 160 160 162 166 168 167 166 170 175 184 188 191 191 190 193 198 195 206 204 203
233 223 205 211 229 225 217 236 247 253 246 239 210 236 210 157 174 203 197 176 174 171 164 160 158 161 162 162 167 166 166 169 175 182 185 188 192 197 195 202 211 209 217 214
242 234 191 205 221 233 218 228 256 267 263 262 233 212 197 179 178 183 174 164 170 168 162 160 155 159 159 159 165 165 162 165 171 175 178 184 191 198 197 198 209 211 214 213
254 257 228 204 217 223 242 234 234 246 251 254 246 232 231 196 194 188 191 176 162 159 159 154 153 155 156 157 160 163 164 169 170 173 180 178 181 188 197 204 204 213 213 216
246 248 233 211 218 223 214 219 232 245 254 260 258 250 48 167 220 216 202 179 160 158 156 151 150 151 152 151 154 162 165 167 173 178 179 182 182 185 193 198 207 210 214 216
233 250 247 233 219 233 230 233 231 243 246 251 263 267 76 110 166 200 198 155 150 154 153 146 141 146 149 147 148 154 164 172 176 177 179 184 185 188 192 194 203 207 212 218
224 236 239 222 206 208 222 228 233 242 253 253 253 242 107 137 151 156 158 145 148 154 150 145 142 146 147 150 155 158 168 175 177 177 179 180 187 190 193 194 200 205 209 215
245 241 252 262 266 218 219 226 229 237 241 246 248 254 236 216 236 157 144 155 157 157 155 152 152 155 152 151 157 165 173 170 172 179 180 181 187 192 190 192 198 205 209 213
253 245 246 263 276 265 246 244 235 238 250 258 258 263 288 292 290 279 201 171 167 165 162 165 162 155 157 159 165 167 169 170 171 179 181 183 185 187 187 194 200 206 214 218
256 256 248 243 234 237 252 255 244 244 250 253 259 270 332 28 32 177 211 187 184 182 181 176 167 162 167 174 181 179 180 174 178 186 188 180 186 187 191 199 203 210 216 224
248 246 246 245 238 239 241 252 247 241 250 253 255 272 4 128 100 238 225 194 191 197 187 181 177 176 174 181 189 191 189 182 189 192 188 183 186 192 198 201 204 216 221 225
251 251 250 250 240 240 251 260 240 232 239 257 260 296 137 116 118 347 118 131 146 209 205 190 186 179 174 175 183 188 184 184 191 195 192 192 195 195 204 207 212 223 227 226
233 241 249 242 235 239 232 250 260 236 231 277 272 263 187 120 153 124 74 52 19 318 233 200 185 171 172 174 177 180 181 187 195 199 201 198 198 199 211 221 223 229 226 226
196 226 245 242 241 244 291 350 306 246 223 354 285 235 197 216 233 106 46 16 11 26 67 128 150 157 162 169 174 179 181 185 194 198 202 204 209 211 219 226 231 228 227 230
196 208 232 242 246 251 357 334 266 230 348 28 334 258 193 276 349 67 36 29 16 22 66 120 138 147 148 164 177 186 183 188 192 188 191 202 221 225 222 222 225 230 231 233
250 232 225 234 240 247 20 16 299 4 17 23 16 8 31 48 73 99 92 73 48 38 76 118 131 130 140 157 173 174 171 176 187 174 166 178 226 254 231 225 223 229 231 227
289 320 305 290 323 36 28 30 33 9 8 13 2 354 50 114 108 98 86 74 75 79 85 112 130 135 143 159 166 159 147 166 187 177 167 177 209 250 274 251 229 222 226 241
45 355 293 274 301 351 360 5 357 354 352 352 1 7 99 107 94 79 76 81 87 98 111 126 136 137 137 140 134 130 142 155 180 182 188 198 206 203 237 281 268 251 252 253
325 308 293 272 297 308 339 356 353 347 345 357 18 36 63 102 108 84 82 87 92 101 105 122 128 127 125 119 111 131 140 153 170 181 184 212 220 180 218 270 314 287 287 310
299 293 291 304 349 320 326 338 334 333 335 333 5 51 81 95 104 99 92 84 102 107 107 105 109 101 94 101 115 119 127 144 176 195 204 221 233 217 242 232 204 25 271 154